Location: Unspecified
(35.2540°N, 0.0000°E)
Time: 02:52:59
(UTC+00:00)

MUNIN - Visible Passes

Search period start: 04 April 2026 00:00
Search period end: 14 April 2026 00:00
Orbit: 701 x 1786 km, 95.4° (Epoch: 28 March)

Date Brightness Start Highest point End Pass type
(mag) Time Alt. Az. Time Alt. Az. Time Alt. Az.
4 Apr 10.8 01:27:04 10° ENE 01:28:05 12° ENE 01:28:05 12° ENE visible
4 Apr 8.4 03:13:59 10° N 03:18:31 58° NW 03:18:31 58° NW visible
5 Apr 10.8 01:22:38 10° ENE 01:23:40 12° ENE 01:23:40 12° ENE visible
5 Apr 8.3 03:09:20 10° N 03:14:05 63° NW 03:14:05 63° NW visible
6 Apr 10.8 01:18:13 10° ENE 01:19:14 12° ENE 01:19:14 12° ENE visible
6 Apr 8.3 03:04:41 10° N 03:09:40 68° NW 03:09:40 68° NW visible
7 Apr 10.9 01:13:49 10° ENE 01:14:49 11° ENE 01:14:49 11° ENE visible
7 Apr 8.3 03:00:03 10° N 03:05:15 73° NW 03:05:15 73° NW visible
8 Apr 10.9 01:09:27 10° ENE 01:10:24 11° E 01:10:24 11° E visible
8 Apr 8.3 02:55:24 10° N 03:00:50 78° NW 03:00:50 78° NW visible
9 Apr 10.9 01:05:06 10° ENE 01:06:00 11° E 01:06:00 11° E visible
9 Apr 8.3 02:50:46 10° N 02:56:26 83° NW 02:56:26 83° NW visible
10 Apr 11.0 01:00:48 10° ENE 01:01:36 11° E 01:01:36 11° E visible
10 Apr 8.4 02:46:08 10° N 02:52:01 88° WNW 02:52:01 88° WNW visible
10 Apr 10.3 04:39:43 10° WNW 04:41:02 11° WNW 04:42:24 10° W visible
11 Apr 11.0 00:56:33 10° ENE 00:57:11 10° E 00:57:11 10° E visible
11 Apr 8.4 02:41:30 10° N 02:47:32 89° ESE 02:47:37 87° SSE visible
11 Apr 10.2 04:34:24 10° NW 04:36:31 12° WNW 04:38:03 11° W visible
12 Apr 11.0 00:52:26 10° E 00:52:47 10° E 00:52:47 10° E visible
12 Apr 8.5 02:36:52 10° N 02:43:00 85° ESE 02:43:13 83° SE visible
12 Apr 10.2 04:29:20 10° NW 04:32:01 13° WNW 04:33:39 12° W visible
13 Apr 8.6 02:32:15 10° NNE 02:38:29 82° E 02:38:49 79° SE visible
13 Apr 10.2 04:24:21 10° NW 04:27:30 14° WNW 04:29:15 13° W visible
